IK7IZV Weather Reports


time (UTC)temp
C
wind
direction
speed
KPH
gust
KPH
rain 1hr
cm
rain 24hr
cm
rain mn
cm
humidity
%
barometer
mb
20260504173023 21 193 4.8 16.1 0.00 0.00 0.00 39 1018.7
20260504171536 21 178 8.0 14.5 0.00 0.00 0.00 40 1018.6
20260504081541 18 76 8.0 14.5 0.00 0.00 0.00 59 1021.3
20260504050011 15 262 3.2 8.0 0.00 0.00 0.00 66 1020.2
20260504044510 14 230 4.8 11.3 0.00 0.00 0.00 67 1020.0
20260504043004 13 252 3.2 11.3 0.00 0.00 0.00 70 1019.9
20260504041505 12 284 1.6 11.3 0.00 0.00 0.00 72 1019.8
20260504040003 12 233 3.2 9.7 0.00 0.00 0.00 74 1019.8
20260504034503 12 241 3.2 9.7 0.00 0.00 0.00 75 1019.8
20260504033059 12 264 1.6 9.7 0.00 0.00 0.00 74 1019.7
20260504031559 12 226 1.6 8.0 0.00 0.00 0.00 74 1019.6
20260504030058 12 212 3.2 9.7 0.00 0.00 0.00 73 1019.6
20260504024558 12 260 3.2 9.7 0.00 0.00 0.00 73 1019.6
20260504023056 11 262 4.8 9.7 0.00 0.00 0.00 73 1019.7
20260504021554 11 201 3.2 12.9 0.00 0.00 0.00 73 1019.7
20260504020053 12 285 4.8 9.7 0.00 0.00 0.00 72 1019.6
20260504014602 12 275 4.8 11.3 0.00 0.00 0.00 71 1019.7
20260504013052 12 238 3.2 8.0 0.00 0.00 0.00 70 1019.7
20260504011552 12 263 1.6 8.0 0.00 0.00 0.00 71 1019.7
20260504010051 12 288 4.8 9.7 0.00 0.00 0.00 70 1019.7
20260504004547 12 287 1.6 8.0 0.00 0.00 0.00 71 1019.7
20260504003050 12 156 3.2 9.7 0.00 0.00 0.00 70 1019.7
20260504001544 12 264 3.2 8.0 0.00 0.00 0.00 70 1019.8
20260504000043 12 273 1.6 8.0 0.00 0.00 0.00 69 1019.8
20260503234546 12 198 0.0 6.4 0.00 0.00 0.00 69 1019.8
20260503233036 13 267 1.6 6.4 0.00 0.00 0.00 69 1020.0
20260503231536 13 254 0.0 8.0 0.00 0.00 0.00 69 1020.0
20260503230040 13 267 0.0 8.0 0.00 0.00 0.00 68 1020.1
20260503224534 13 257 1.6 6.4 0.00 0.00 0.00 68 1020.0
20260503223033 13 204 0.0 4.8 0.00 0.00 0.00 68 1020.1
20260503221530 13 239 0.0 6.4 0.00 0.00 0.00 67 1020.1
20260503220041 13 260 3.2 11.3 0.00 0.00 0.00 68 1020.0
20260503214524 15 264 4.8 9.7 0.00 0.00 0.00 65 1019.9
20260503213026 15 255 1.6 6.4 0.00 0.00 0.00 65 1019.8
20260503211524 15 211 3.2 4.8 0.00 0.00 0.00 66 1019.8
20260503210023 15 212 3.2 4.8 0.00 0.00 0.00 66 1019.7
20260503204522 15 283 1.6 4.8 0.00 0.00 0.00 63 1019.7
20260503203029 16 279 0.0 4.8 0.00 0.00 0.00 59 1019.6
20260503201521 17 213 0.0 1.6 0.00 0.00 0.00 57 1019.6
20260503200020 18 302 0.0 3.2 0.00 0.00 0.00 55 1019.5
20260503194522 18 60 0.0 3.2 0.00 0.00 0.00 53 1019.3
20260503193018 18 60 0.0 1.6 0.00 0.00 0.00 51 1019.2
20260503191521 18 59 0.0 0.0 0.00 0.00 0.00 50 1019.1
20260503190017 18 60 1.6 3.2 0.00 0.00 0.00 49 1019.0
20260503184517 18 60 0.0 1.6 0.00 0.00 0.00 48 1018.9
20260503183021 19 60 1.6 4.8 0.00 0.00 0.00 47 1018.8
20260503181516 19 335 0.0 1.6 0.00 0.00 0.00 46 1018.7
20260503180019 20 335 1.6 4.8 0.00 0.00 0.00 44 1018.7
20260503174515 20 359 3.2 6.4 0.00 0.00 0.00 43 1018.7